Showing default

COSMOS 2170, 21784

Orbit data source: Space-Track

COSMOS 2170, 21784 is a payload satellite owned by UNKS RF (CIS) in LEO that was launched on Tue, 12 Nov 1991 UTC via a TSIKLON-3 launch vehicle from the Plesetsk Missile And Space Complex (PKMTR). Payload-class satellites include a variety of spacecraft equipped with specific instruments for various scientific and technological missions. These include communications satellites like Starlink; space stations such as the ISS; scientific satellites like the Hubble; Earth observation satellites from companies like Planet Labs, Umbra, and HawkEye 360; GPS; miniature CubeSats for education and research; and military/defense satellites.

Loading next visibility...
Identifier
21784, 1991-077F
Orbit
LEO
Country
Flag of CISCIS
Related business
Manufacturer
NPO PM
Mission
Defense Communications
Bus & Motor
STRELA-3, Unknown motor
Mass
225 kg wet, 225 kg dry
Launch date (UTC)
1991-11-12 (34 years ago)
Launch vehicle
TSIKLON-3
Launch site
Plesetsk Missile And Space Complex (PKMTR)
Object type
Payload
Rocket body
Debris
Shape & HBR
Cyl, 0.8 m
Radar Cross Section
1.257 m², Medium (>0.1 m² and < 1m²)

Expand to show TLE details & history
Last TLE update: 17 hours ago

TLE from 17 hours ago
0 COSMOS 2170
1 21784U 91077F   25312.71153247  .00000047  00000-0  20157-3 0  9998
2 21784  82.6115  49.2542 0003438  83.3465  71.3045 12.62580789566252
Epoch: 2025-11-08T17:04Z
TLE epoch observation values (Epoch: 2025-11-08T17:04:36.405Z)
Latitude
25.11364°
Longitude
-78.50212°
Altitude
1,414.348 km
Speed
7.156 km/s
True Right ascension
15h 03m 08s
True Declination
24° 59' 34"
Sunlit
Object was in daylight at epoch
Visualization orbit readout
Latitude
Unknown
Longitude
Unknown
Altitude
Unknown
Speed
Unknown
Apparent Right ascension
Unknown
Apparent Declination
Unknown
Sunlit
N/A
Visualization observer readout
Local Sidereal Time
06:29:06
Azimuth
Unknown
Elevation
Unknown
Doppler factor
Unknown
Orbital elements
Apogee altitude
1,412.307 km
Perigee altitude
1,406.952 km
Semi-major axis
7,787.766 km
Eccentricity
0.00034
Inclination
82.6115°
RAAN
49.2542°
Arg. of periapsis
83.3465°
True anomaly
71.34182°
Mean anomaly
71.3045°
Eccentric anomaly
71.32316°
Mean motion
3.15808 °/min
Orbital period
113.99 mins
BSTAR
0.00020157
Loading maneuver chart data...
Computing Atmospheric mass density...
Loading historical data...
Loading historical data...
Loading historical data...
Loading historical data...
Loading historical data...
Loading historical data...
Loading historical data...

Documentation

Showing up to 5 results
|